iso_date,Year,Hour,Min,DOY,POS_DOY,Lat,Lon,BP,Ts,Ta,has_bp,has_ts,has_ta,BuoyID,Buoy_Type,Buoy_Owner,Logistics,Hemisphere
2022-03-08T19:23:13Z,2022,19,23,67.8078,67.8078,72.82553,-145.10693,-999.0,-40.0,-999.0,no,yes,no,300534062724570,IT,ASL,ICEX_2022,North
2022-03-08T19:30:17Z,2022,19,30,67.8127,67.8127,72.82547,-145.10749,-999.0,-999.0,-999.0,no,yes,no,300534062724570,IT,ASL,ICEX_2022,North
2022-03-08T19:40:13Z,2022,19,40,67.8196,67.8196,72.82532,-145.10819,-999.0,-999.0,-999.0,no,yes,no,300534062724570,IT,ASL,ICEX_2022,North
2022-03-08T19:50:09Z,2022,19,50,67.8265,67.8265,72.82516,-145.10892,-999.0,-999.0,-999.0,no,yes,no,300534062724570,IT,ASL,ICEX_2022,North
2022-03-08T20:00:05Z,2022,20,0,67.8334,67.8334,72.825,-145.10966,-999.0,-999.0,-999.0,no,yes,no,300534062724570,IT,ASL,ICEX_2022,North
2022-03-08T20:10:10Z,2022,20,10,67.8404,67.8404,72.82484,-145.11042,-999.0,-999.0,-999.0,no,yes,no,300534062724570,IT,ASL,ICEX_2022,North
2022-03-08T20:20:06Z,2022,20,20,67.8473,67.8473,72.82467,-145.11122,-999.0,-999.0,-999.0,no,yes,no,300534062724570,IT,ASL,ICEX_2022,North
2022-03-08T20:30:11Z,2022,20,30,67.8543,67.8543,72.82449,-145.11205,-999.0,-999.0,-999.0,no,yes,no,300534062724570,IT,ASL,ICEX_2022,North
2022-03-08T20:40:07Z,2022,20,40,67.8612,67.8612,72.82431,-145.11285,-999.0,-999.0,-999.0,no,yes,no,300534062724570,IT,ASL,ICEX_2022,North
2022-03-08T20:50:12Z,2022,20,50,67.8682,67.8682,72.8241,-145.11368,-999.0,-999.0,-999.0,no,yes,no,300534062724570,IT,ASL,ICEX_2022,North
2022-03-08T21:00:08Z,2022,21,0,67.8751,67.8751,72.82387,-145.11451,-999.0,-999.0,-999.0,no,yes,no,300534062724570,IT,ASL,ICEX_2022,North
2022-03-08T21:10:13Z,2022,21,10,67.8821,67.8821,72.82364,-145.11533,-999.0,-999.0,-999.0,no,yes,no,300534062724570,IT,ASL,ICEX_2022,North
2022-03-08T21:20:09Z,2022,21,20,67.889,67.889,72.82342,-145.11621,-999.0,-999.0,-999.0,no,yes,no,300534062724570,IT,ASL,ICEX_2022,North
2022-03-08T21:30:05Z,2022,21,30,67.8959,67.8959,72.82318,-145.11712,-999.0,-999.0,-999.0,no,yes,no,300534062724570,IT,ASL,ICEX_2022,North
2022-03-08T21:40:10Z,2022,21,40,67.9029,67.9029,72.82292,-145.11811,-999.0,-999.0,-999.0,no,yes,no,300534062724570,IT,ASL,ICEX_2022,North
2022-03-08T21:50:06Z,2022,21,50,67.9098,67.9098,72.82264,-145.11915,-999.0,-999.0,-999.0,no,yes,no,300534062724570,IT,ASL,ICEX_2022,North
2022-03-08T22:00:11Z,2022,22,0,67.9168,67.9168,72.82234,-145.12014,-999.0,-999.0,-999.0,no,yes,no,300534062724570,IT,ASL,ICEX_2022,North
2022-03-08T22:10:16Z,2022,22,10,67.9238,67.9238,72.82206,-145.12121,-999.0,-999.0,-999.0,no,yes,no,300534062724570,IT,ASL,ICEX_2022,North
2022-03-08T22:20:12Z,2022,22,20,67.9307,67.9307,72.82178,-145.12226,-999.0,-999.0,-999.0,no,yes,no,300534062724570,IT,ASL,ICEX_2022,North
2022-03-08T22:30:08Z,2022,22,30,67.9376,67.9376,72.82148,-145.12339,-999.0,-999.0,-999.0,no,yes,no,300534062724570,IT,ASL,ICEX_2022,North
2022-03-08T22:40:13Z,2022,22,40,67.9446,67.9446,72.82119,-145.12456,-999.0,-999.0,-999.0,no,yes,no,300534062724570,IT,ASL,ICEX_2022,North
2022-03-08T22:50:09Z,2022,22,50,67.9515,67.9515,72.82089,-145.12578,-999.0,-999.0,-999.0,no,yes,no,300534062724570,IT,ASL,ICEX_2022,North
2022-03-08T23:00:05Z,2022,23,0,67.9584,67.9584,72.8206,-145.12707,-999.0,-999.0,-999.0,no,yes,no,300534062724570,IT,ASL,ICEX_2022,North
2022-03-08T23:10:10Z,2022,23,10,67.9654,67.9654,72.82031,-145.12837,-999.0,-999.0,-999.0,no,yes,no,300534062724570,IT,ASL,ICEX_2022,North
2022-03-08T23:20:06Z,2022,23,20,67.9723,67.9723,72.82,-145.12972,-999.0,-999.0,-999.0,no,yes,no,300534062724570,IT,ASL,ICEX_2022,North
2022-03-08T23:30:11Z,2022,23,30,67.9793,67.9793,72.81968,-145.13112,-999.0,-999.0,-999.0,no,yes,no,300534062724570,IT,ASL,ICEX_2022,North
2022-03-08T23:40:07Z,2022,23,40,67.9862,67.9862,72.81935,-145.1326,-999.0,-999.0,-999.0,no,yes,no,300534062724570,IT,ASL,ICEX_2022,North
2022-03-08T23:50:12Z,2022,23,50,67.9932,67.9932,72.81902,-145.13408,-999.0,-999.0,-999.0,no,yes,no,300534062724570,IT,ASL,ICEX_2022,North
2022-03-09T00:00:08Z,2022,0,0,68.0001,68.0001,72.8187,-145.13553,-999.0,-999.0,-999.0,no,yes,no,300534062724570,IT,ASL,ICEX_2022,North
2022-03-09T00:10:13Z,2022,0,10,68.0071,68.0071,72.81837,-145.13697,-999.0,-999.0,-999.0,no,yes,no,300534062724570,IT,ASL,ICEX_2022,North
2022-03-09T00:20:09Z,2022,0,20,68.014,68.014,72.81804,-145.13836,-999.0,-999.0,-999.0,no,yes,no,300534062724570,IT,ASL,ICEX_2022,North
2022-03-09T00:30:14Z,2022,0,30,68.021,68.021,72.81771,-145.13976,-999.0,-999.0,-999.0,no,yes,no,300534062724570,IT,ASL,ICEX_2022,North
2022-03-09T00:40:10Z,2022,0,40,68.0279,68.0279,72.81739,-145.14114,-999.0,-999.0,-999.0,no,yes,no,300534062724570,IT,ASL,ICEX_2022,North
2022-03-09T00:50:06Z,2022,0,50,68.0348,68.0348,72.81709,-145.14249,-999.0,-999.0,-999.0,no,yes,no,300534062724570,IT,ASL,ICEX_2022,North
2022-03-09T01:00:11Z,2022,1,0,68.0418,68.0418,72.81681,-145.14376,-999.0,-999.0,-999.0,no,yes,no,300534062724570,IT,ASL,ICEX_2022,North
2022-03-09T01:10:07Z,2022,1,10,68.0487,68.0487,72.81653,-145.14498,-999.0,-999.0,-999.0,no,yes,no,300534062724570,IT,ASL,ICEX_2022,North
2022-03-09T01:20:12Z,2022,1,20,68.0557,68.0557,72.81624,-145.14619,-999.0,-999.0,-999.0,no,yes,no,300534062724570,IT,ASL,ICEX_2022,North
2022-03-09T01:30:08Z,2022,1,30,68.0626,68.0626,72.81597,-145.14733,-999.0,-999.0,-999.0,no,yes,no,300534062724570,IT,ASL,ICEX_2022,North
2022-03-09T01:40:13Z,2022,1,40,68.0696,68.0696,72.8157,-145.14846,-999.0,-999.0,-999.0,no,yes,no,300534062724570,IT,ASL,ICEX_2022,North
2022-03-09T01:50:09Z,2022,1,50,68.0765,68.0765,72.81543,-145.1496,-999.0,-999.0,-999.0,no,yes,no,300534062724570,IT,ASL,ICEX_2022,North
2022-03-09T02:00:05Z,2022,2,0,68.0834,68.0834,72.81518,-145.15075,-999.0,-999.0,-999.0,no,yes,no,300534062724570,IT,ASL,ICEX_2022,North
2022-03-09T02:10:10Z,2022,2,10,68.0904,68.0904,72.81494,-145.15192,-999.0,-999.0,-999.0,no,yes,no,300534062724570,IT,ASL,ICEX_2022,North
2022-03-09T02:20:06Z,2022,2,20,68.0973,68.0973,72.81471,-145.15313,-999.0,-999.0,-999.0,no,yes,no,300534062724570,IT,ASL,ICEX_2022,North
2022-03-09T02:30:11Z,2022,2,30,68.1043,68.1043,72.81448,-145.15432,-999.0,-999.0,-999.0,no,yes,no,300534062724570,IT,ASL,ICEX_2022,North
2022-03-09T02:40:07Z,2022,2,40,68.1112,68.1112,72.81425,-145.15551,-999.0,-999.0,-999.0,no,yes,no,300534062724570,IT,ASL,ICEX_2022,North
2022-03-09T02:50:12Z,2022,2,50,68.1182,68.1182,72.81402,-145.15668,-999.0,-999.0,-999.0,no,yes,no,300534062724570,IT,ASL,ICEX_2022,North
2022-03-09T03:00:08Z,2022,3,0,68.1251,68.1251,72.81379,-145.15785,-999.0,-999.0,-999.0,no,yes,no,300534062724570,IT,ASL,ICEX_2022,North
2022-03-09T03:10:13Z,2022,3,10,68.1321,68.1321,72.81356,-145.15902,-999.0,-999.0,-999.0,no,yes,no,300534062724570,IT,ASL,ICEX_2022,North
2022-03-09T03:20:09Z,2022,3,20,68.139,68.139,72.81333,-145.16016,-999.0,-999.0,-999.0,no,yes,no,300534062724570,IT,ASL,ICEX_2022,North
2022-03-09T03:30:14Z,2022,3,30,68.146,68.146,72.8131,-145.16132,-999.0,-999.0,-999.0,no,yes,no,300534062724570,IT,ASL,ICEX_2022,North
2022-03-09T03:40:10Z,2022,3,40,68.1529,68.1529,72.81287,-145.16247,-999.0,-999.0,-999.0,no,yes,no,300534062724570,IT,ASL,ICEX_2022,North
2022-03-09T03:50:06Z,2022,3,50,68.1598,68.1598,72.81262,-145.16359,-999.0,-999.0,-999.0,no,yes,no,300534062724570,IT,ASL,ICEX_2022,North
2022-03-09T04:00:11Z,2022,4,0,68.1668,68.1668,72.81238,-145.16469,-999.0,-999.0,-999.0,no,yes,no,300534062724570,IT,ASL,ICEX_2022,North
2022-03-09T04:10:07Z,2022,4,10,68.1737,68.1737,72.81212,-145.16579,-999.0,-999.0,-999.0,no,yes,no,300534062724570,IT,ASL,ICEX_2022,North
2022-03-09T04:20:12Z,2022,4,20,68.1807,68.1807,72.81185,-145.16691,-999.0,-999.0,-999.0,no,yes,no,300534062724570,IT,ASL,ICEX_2022,North
2022-03-09T04:30:08Z,2022,4,30,68.1876,68.1876,72.81158,-145.16803,-999.0,-999.0,-999.0,no,yes,no,300534062724570,IT,ASL,ICEX_2022,North
2022-03-09T04:40:13Z,2022,4,40,68.1946,68.1946,72.81131,-145.16915,-999.0,-999.0,-999.0,no,yes,no,300534062724570,IT,ASL,ICEX_2022,North
2022-03-09T04:50:09Z,2022,4,50,68.2015,68.2015,72.81104,-145.17026,-999.0,-999.0,-999.0,no,yes,no,300534062724570,IT,ASL,ICEX_2022,North
2022-03-09T05:00:05Z,2022,5,0,68.2084,68.2084,72.81078,-145.1714,-999.0,-999.0,-999.0,no,yes,no,300534062724570,IT,ASL,ICEX_2022,North
2022-03-09T05:10:10Z,2022,5,10,68.2154,68.2154,72.81049,-145.17255,-999.0,-999.0,-999.0,no,yes,no,300534062724570,IT,ASL,ICEX_2022,North
2022-03-09T05:20:06Z,2022,5,20,68.2223,68.2223,72.81021,-145.17372,-999.0,-999.0,-999.0,no,yes,no,300534062724570,IT,ASL,ICEX_2022,North
2022-03-09T05:30:11Z,2022,5,30,68.2293,68.2293,72.80992,-145.17489,-999.0,-999.0,-999.0,no,yes,no,300534062724570,IT,ASL,ICEX_2022,North
2022-03-09T05:40:07Z,2022,5,40,68.2362,68.2362,72.80962,-145.17609,-999.0,-999.0,-999.0,no,yes,no,300534062724570,IT,ASL,ICEX_2022,North
2022-03-09T05:50:12Z,2022,5,50,68.2432,68.2432,72.80934,-145.17731,-999.0,-999.0,-999.0,no,yes,no,300534062724570,IT,ASL,ICEX_2022,North
2022-03-09T06:00:17Z,2022,6,0,68.2502,68.2502,72.80907,-145.17855,-999.0,-999.0,-999.0,no,yes,no,300534062724570,IT,ASL,ICEX_2022,North
2022-03-09T06:10:13Z,2022,6,10,68.2571,68.2571,72.80881,-145.17982,-999.0,-999.0,-999.0,no,yes,no,300534062724570,IT,ASL,ICEX_2022,North
2022-03-09T06:20:09Z,2022,6,20,68.264,68.264,72.80855,-145.18111,-999.0,-999.0,-999.0,no,yes,no,300534062724570,IT,ASL,ICEX_2022,North
2022-03-09T06:30:14Z,2022,6,30,68.271,68.271,72.80831,-145.18245,-999.0,-999.0,-999.0,no,yes,no,300534062724570,IT,ASL,ICEX_2022,North
2022-03-09T06:40:10Z,2022,6,40,68.2779,68.2779,72.80806,-145.18378,-999.0,-999.0,-999.0,no,yes,no,300534062724570,IT,ASL,ICEX_2022,North
2022-03-09T06:50:06Z,2022,6,50,68.2848,68.2848,72.80782,-145.18509,-999.0,-999.0,-999.0,no,yes,no,300534062724570,IT,ASL,ICEX_2022,North
2022-03-09T07:00:11Z,2022,7,0,68.2918,68.2918,72.80758,-145.18637,-999.0,-999.0,-999.0,no,yes,no,300534062724570,IT,ASL,ICEX_2022,North
2022-03-09T07:10:07Z,2022,7,10,68.2987,68.2987,72.80734,-145.18765,-999.0,-999.0,-999.0,no,yes,no,300534062724570,IT,ASL,ICEX_2022,North
2022-03-09T07:20:12Z,2022,7,20,68.3057,68.3057,72.8071,-145.18888,-999.0,-999.0,-999.0,no,yes,no,300534062724570,IT,ASL,ICEX_2022,North
2022-03-09T07:30:08Z,2022,7,30,68.3126,68.3126,72.80687,-145.1901,-999.0,-999.0,-999.0,no,yes,no,300534062724570,IT,ASL,ICEX_2022,North
2022-03-09T07:40:13Z,2022,7,40,68.3196,68.3196,72.80663,-145.19128,-999.0,-999.0,-999.0,no,yes,no,300534062724570,IT,ASL,ICEX_2022,North
2022-03-09T07:50:09Z,2022,7,50,68.3265,68.3265,72.80639,-145.19244,-999.0,-999.0,-999.0,no,yes,no,300534062724570,IT,ASL,ICEX_2022,North
2022-03-09T08:00:05Z,2022,8,0,68.3334,68.3334,72.80614,-145.19359,-999.0,-999.0,-999.0,no,yes,no,300534062724570,IT,ASL,ICEX_2022,North
2022-03-09T08:10:10Z,2022,8,10,68.3404,68.3404,72.80589,-145.19474,-999.0,-999.0,-999.0,no,yes,no,300534062724570,IT,ASL,ICEX_2022,North
2022-03-09T08:20:06Z,2022,8,20,68.3473,68.3473,72.80564,-145.19585,-999.0,-999.0,-999.0,no,yes,no,300534062724570,IT,ASL,ICEX_2022,North
2022-03-09T08:30:11Z,2022,8,30,68.3543,68.3543,72.80538,-145.19691,-999.0,-999.0,-999.0,no,yes,no,300534062724570,IT,ASL,ICEX_2022,North
2022-03-09T08:40:07Z,2022,8,40,68.3612,68.3612,72.80513,-145.19794,-999.0,-999.0,-999.0,no,yes,no,300534062724570,IT,ASL,ICEX_2022,North
2022-03-09T08:50:12Z,2022,8,50,68.3682,68.3682,72.80487,-145.19894,-999.0,-999.0,-999.0,no,yes,no,300534062724570,IT,ASL,ICEX_2022,North
2022-03-09T09:00:08Z,2022,9,0,68.3751,68.3751,72.8046,-145.19993,-999.0,-999.0,-999.0,no,yes,no,300534062724570,IT,ASL,ICEX_2022,North
2022-03-09T09:10:13Z,2022,9,10,68.3821,68.3821,72.80434,-145.20089,-999.0,-999.0,-999.0,no,yes,no,300534062724570,IT,ASL,ICEX_2022,North
2022-03-09T09:20:09Z,2022,9,20,68.389,68.389,72.80408,-145.20181,-999.0,-999.0,-999.0,no,yes,no,300534062724570,IT,ASL,ICEX_2022,North
2022-03-09T09:30:14Z,2022,9,30,68.396,68.396,72.80382,-145.20267,-999.0,-999.0,-999.0,no,yes,no,300534062724570,IT,ASL,ICEX_2022,North
2022-03-09T09:40:10Z,2022,9,40,68.4029,68.4029,72.80355,-145.20353,-999.0,-999.0,-999.0,no,yes,no,300534062724570,IT,ASL,ICEX_2022,North
2022-03-09T09:50:06Z,2022,9,50,68.4098,68.4098,72.80328,-145.20436,-999.0,-999.0,-999.0,no,yes,no,300534062724570,IT,ASL,ICEX_2022,North
2022-03-09T10:00:11Z,2022,10,0,68.4168,68.4168,72.80301,-145.20519,-999.0,-999.0,-999.0,no,yes,no,300534062724570,IT,ASL,ICEX_2022,North
2022-03-09T10:10:07Z,2022,10,10,68.4237,68.4237,72.80273,-145.20601,-999.0,-999.0,-999.0,no,yes,no,300534062724570,IT,ASL,ICEX_2022,North
2022-03-09T10:20:12Z,2022,10,20,68.4307,68.4307,72.80246,-145.20678,-999.0,-999.0,-999.0,no,yes,no,300534062724570,IT,ASL,ICEX_2022,North
2022-03-09T10:30:08Z,2022,10,30,68.4376,68.4376,72.80219,-145.20746,-999.0,-999.0,-999.0,no,yes,no,300534062724570,IT,ASL,ICEX_2022,North
2022-03-09T10:40:13Z,2022,10,40,68.4446,68.4446,72.80191,-145.20811,-999.0,-999.0,-999.0,no,yes,no,300534062724570,IT,ASL,ICEX_2022,North
2022-03-09T10:50:09Z,2022,10,50,68.4515,68.4515,72.80165,-145.20867,-999.0,-999.0,-999.0,no,yes,no,300534062724570,IT,ASL,ICEX_2022,North
2022-03-09T11:00:14Z,2022,11,0,68.4585,68.4585,72.80139,-145.20917,-999.0,-999.0,-999.0,no,yes,no,300534062724570,IT,ASL,ICEX_2022,North
2022-03-09T11:10:10Z,2022,11,10,68.4654,68.4654,72.80112,-145.20969,-999.0,-999.0,-999.0,no,yes,no,300534062724570,IT,ASL,ICEX_2022,North
2022-03-09T11:20:06Z,2022,11,20,68.4723,68.4723,72.80086,-145.21017,-999.0,-999.0,-999.0,no,yes,no,300534062724570,IT,ASL,ICEX_2022,North
2022-03-09T11:30:11Z,2022,11,30,68.4793,68.4793,72.80057,-145.21065,-999.0,-999.0,-999.0,no,yes,no,300534062724570,IT,ASL,ICEX_2022,North
2022-03-09T11:40:07Z,2022,11,40,68.4862,68.4862,72.80033,-145.21107,-999.0,-999.0,-999.0,no,yes,no,300534062724570,IT,ASL,ICEX_2022,North
2022-03-09T11:50:12Z,2022,11,50,68.4932,68.4932,72.80012,-145.21139,-999.0,-999.0,-999.0,no,yes,no,300534062724570,IT,ASL,ICEX_2022,North
2022-03-09T12:00:08Z,2022,12,0,68.5001,68.5001,72.79986,-145.21176,-999.0,-999.0,-999.0,no,yes,no,300534062724570,IT,ASL,ICEX_2022,North
2022-03-09T12:10:13Z,2022,12,10,68.5071,68.5071,72.79959,-145.21214,-999.0,-999.0,-999.0,no,yes,no,300534062724570,IT,ASL,ICEX_2022,North
2022-03-09T12:20:09Z,2022,12,20,68.514,68.514,72.79933,-145.21251,-999.0,-999.0,-999.0,no,yes,no,300534062724570,IT,ASL,ICEX_2022,North
2022-03-09T12:30:05Z,2022,12,30,68.5209,68.5209,72.79906,-145.21284,-999.0,-999.0,-999.0,no,yes,no,300534062724570,IT,ASL,ICEX_2022,North
2022-03-09T12:40:10Z,2022,12,40,68.5279,68.5279,72.79881,-145.21313,-999.0,-999.0,-999.0,no,yes,no,300534062724570,IT,ASL,ICEX_2022,North
2022-03-09T12:50:06Z,2022,12,50,68.5348,68.5348,72.79857,-145.21336,-999.0,-999.0,-999.0,no,yes,no,300534062724570,IT,ASL,ICEX_2022,North
2022-03-09T13:00:11Z,2022,13,0,68.5418,68.5418,72.79828,-145.21367,-999.0,-999.0,-999.0,no,yes,no,300534062724570,IT,ASL,ICEX_2022,North
2022-03-09T13:10:07Z,2022,13,10,68.5487,68.5487,72.79799,-145.21396,-999.0,-999.0,-999.0,no,yes,no,300534062724570,IT,ASL,ICEX_2022,North
2022-03-09T13:20:12Z,2022,13,20,68.5557,68.5557,72.79772,-145.21422,-999.0,-999.0,-999.0,no,yes,no,300534062724570,IT,ASL,ICEX_2022,North
2022-03-09T13:30:08Z,2022,13,30,68.5626,68.5626,72.79745,-145.21449,-999.0,-999.0,-999.0,no,yes,no,300534062724570,IT,ASL,ICEX_2022,North
2022-03-09T13:40:13Z,2022,13,40,68.5696,68.5696,72.79716,-145.21474,-999.0,-999.0,-999.0,no,yes,no,300534062724570,IT,ASL,ICEX_2022,North
2022-03-09T13:50:09Z,2022,13,50,68.5765,68.5765,72.79689,-145.21497,-999.0,-999.0,-999.0,no,yes,no,300534062724570,IT,ASL,ICEX_2022,North
2022-03-09T14:00:05Z,2022,14,0,68.5834,68.5834,72.7966,-145.21521,-999.0,-999.0,-999.0,no,yes,no,300534062724570,IT,ASL,ICEX_2022,North
2022-03-09T14:10:10Z,2022,14,10,68.5904,68.5904,72.79631,-145.21543,-999.0,-999.0,-999.0,no,yes,no,300534062724570,IT,ASL,ICEX_2022,North
2022-03-09T14:20:06Z,2022,14,20,68.5973,68.5973,72.79603,-145.21562,-999.0,-999.0,-999.0,no,yes,no,300534062724570,IT,ASL,ICEX_2022,North
2022-03-09T14:30:11Z,2022,14,30,68.6043,68.6043,72.79576,-145.2158,-999.0,-999.0,-999.0,no,yes,no,300534062724570,IT,ASL,ICEX_2022,North
2022-03-09T14:40:07Z,2022,14,40,68.6112,68.6112,72.79548,-145.21597,-999.0,-999.0,-999.0,no,yes,no,300534062724570,IT,ASL,ICEX_2022,North
2022-03-09T14:50:12Z,2022,14,50,68.6182,68.6182,72.7952,-145.21612,-999.0,-999.0,-999.0,no,yes,no,300534062724570,IT,ASL,ICEX_2022,North
2022-03-09T15:00:08Z,2022,15,0,68.6251,68.6251,72.79493,-145.21625,-999.0,-999.0,-999.0,no,yes,no,300534062724570,IT,ASL,ICEX_2022,North
2022-03-09T15:10:13Z,2022,15,10,68.6321,68.6321,72.79467,-145.2163,-999.0,-999.0,-999.0,no,yes,no,300534062724570,IT,ASL,ICEX_2022,North
2022-03-09T15:20:09Z,2022,15,20,68.639,68.639,72.7944,-145.21635,-999.0,-999.0,-999.0,no,yes,no,300534062724570,IT,ASL,ICEX_2022,North
2022-03-09T15:30:14Z,2022,15,30,68.646,68.646,72.79413,-145.21643,-999.0,-999.0,-999.0,no,yes,no,300534062724570,IT,ASL,ICEX_2022,North
2022-03-09T15:40:10Z,2022,15,40,68.6529,68.6529,72.79385,-145.21651,-999.0,-999.0,-999.0,no,yes,no,300534062724570,IT,ASL,ICEX_2022,North
2022-03-09T15:50:06Z,2022,15,50,68.6598,68.6598,72.79357,-145.2166,-999.0,-999.0,-999.0,no,yes,no,300534062724570,IT,ASL,ICEX_2022,North
2022-03-09T16:00:11Z,2022,16,0,68.6668,68.6668,72.79329,-145.21666,-999.0,-999.0,-999.0,no,yes,no,300534062724570,IT,ASL,ICEX_2022,North
2022-03-09T16:10:07Z,2022,16,10,68.6737,68.6737,72.79302,-145.21668,-999.0,-999.0,-999.0,no,yes,no,300534062724570,IT,ASL,ICEX_2022,North
2022-03-09T16:20:12Z,2022,16,20,68.6807,68.6807,72.79276,-145.2167,-999.0,-999.0,-999.0,no,yes,no,300534062724570,IT,ASL,ICEX_2022,North
2022-03-09T16:30:08Z,2022,16,30,68.6876,68.6876,72.79249,-145.2167,-999.0,-999.0,-999.0,no,yes,no,300534062724570,IT,ASL,ICEX_2022,North
2022-03-09T16:40:13Z,2022,16,40,68.6946,68.6946,72.79223,-145.21668,-999.0,-999.0,-999.0,no,yes,no,300534062724570,IT,ASL,ICEX_2022,North
2022-03-09T16:50:09Z,2022,16,50,68.7015,68.7015,72.79201,-145.21654,-999.0,-999.0,-999.0,no,yes,no,300534062724570,IT,ASL,ICEX_2022,North
2022-03-09T17:00:05Z,2022,17,0,68.7084,68.7084,72.79178,-145.21637,-999.0,-999.0,-999.0,no,yes,no,300534062724570,IT,ASL,ICEX_2022,North
2022-03-09T17:10:10Z,2022,17,10,68.7154,68.7154,72.79154,-145.21623,-999.0,-999.0,-999.0,no,yes,no,300534062724570,IT,ASL,ICEX_2022,North
2022-03-09T17:20:06Z,2022,17,20,68.7223,68.7223,72.79133,-145.21607,-999.0,-999.0,-999.0,no,yes,no,300534062724570,IT,ASL,ICEX_2022,North
2022-03-09T17:30:11Z,2022,17,30,68.7293,68.7293,72.79109,-145.2159,-999.0,-999.0,-999.0,no,yes,no,300534062724570,IT,ASL,ICEX_2022,North
2022-03-09T17:40:07Z,2022,17,40,68.7362,68.7362,72.79086,-145.21578,-999.0,-999.0,-999.0,no,yes,no,300534062724570,IT,ASL,ICEX_2022,North
2022-03-09T17:50:12Z,2022,17,50,68.7432,68.7432,72.79063,-145.21568,-999.0,-999.0,-999.0,no,yes,no,300534062724570,IT,ASL,ICEX_2022,North
2022-03-09T18:00:08Z,2022,18,0,68.7501,68.7501,72.7904,-145.21558,-999.0,-999.0,-999.0,no,yes,no,300534062724570,IT,ASL,ICEX_2022,North
2022-03-09T18:10:13Z,2022,18,10,68.7571,68.7571,72.79016,-145.21548,-999.0,-999.0,-999.0,no,yes,no,300534062724570,IT,ASL,ICEX_2022,North
2022-03-09T18:20:09Z,2022,18,20,68.764,68.764,72.78993,-145.21539,-999.0,-999.0,-999.0,no,yes,no,300534062724570,IT,ASL,ICEX_2022,North
2022-03-09T18:30:05Z,2022,18,30,68.7709,68.7709,72.78969,-145.21535,-999.0,-999.0,-999.0,no,yes,no,300534062724570,IT,ASL,ICEX_2022,North
2022-03-09T18:40:10Z,2022,18,40,68.7779,68.7779,72.78944,-145.21535,-999.0,-999.0,-999.0,no,yes,no,300534062724570,IT,ASL,ICEX_2022,North
2022-03-09T18:50:06Z,2022,18,50,68.7848,68.7848,72.78918,-145.2154,-999.0,-999.0,-999.0,no,yes,no,300534062724570,IT,ASL,ICEX_2022,North
2022-03-09T19:00:11Z,2022,19,0,68.7918,68.7918,72.78893,-145.21545,-999.0,-999.0,-999.0,no,yes,no,300534062724570,IT,ASL,ICEX_2022,North
2022-03-09T19:10:07Z,2022,19,10,68.7987,68.7987,72.78868,-145.21549,-999.0,-999.0,-999.0,no,yes,no,300534062724570,IT,ASL,ICEX_2022,North
2022-03-09T19:20:12Z,2022,19,20,68.8057,68.8057,72.78844,-145.21553,-999.0,-999.0,-999.0,no,yes,no,300534062724570,IT,ASL,ICEX_2022,North
2022-03-09T19:30:08Z,2022,19,30,68.8126,68.8126,72.78821,-145.21555,-999.0,-999.0,-999.0,no,yes,no,300534062724570,IT,ASL,ICEX_2022,North
2022-03-09T19:40:13Z,2022,19,40,68.8196,68.8196,72.78798,-145.21558,-999.0,-999.0,-999.0,no,yes,no,300534062724570,IT,ASL,ICEX_2022,North
2022-03-09T19:50:09Z,2022,19,50,68.8265,68.8265,72.78777,-145.21555,-999.0,-999.0,-999.0,no,yes,no,300534062724570,IT,ASL,ICEX_2022,North
2022-03-09T20:00:05Z,2022,20,0,68.8334,68.8334,72.78759,-145.21544,-999.0,-999.0,-999.0,no,yes,no,300534062724570,IT,ASL,ICEX_2022,North
2022-03-09T20:10:10Z,2022,20,10,68.8404,68.8404,72.78742,-145.21528,-999.0,-999.0,-999.0,no,yes,no,300534062724570,IT,ASL,ICEX_2022,North
2022-03-09T20:20:06Z,2022,20,20,68.8473,68.8473,72.78722,-145.21516,-999.0,-999.0,-999.0,no,yes,no,300534062724570,IT,ASL,ICEX_2022,North
2022-03-09T20:30:11Z,2022,20,30,68.8543,68.8543,72.787,-145.21523,-999.0,-999.0,-999.0,no,yes,no,300534062724570,IT,ASL,ICEX_2022,North
2022-03-09T20:40:07Z,2022,20,40,68.8612,68.8612,72.78677,-145.21527,-999.0,-999.0,-999.0,no,yes,no,300534062724570,IT,ASL,ICEX_2022,North
2022-03-09T20:50:12Z,2022,20,50,68.8682,68.8682,72.78655,-145.21532,-999.0,-999.0,-999.0,no,yes,no,300534062724570,IT,ASL,ICEX_2022,North
2022-03-09T21:00:08Z,2022,21,0,68.8751,68.8751,72.78633,-145.21528,-999.0,-999.0,-999.0,no,yes,no,300534062724570,IT,ASL,ICEX_2022,North
2022-03-09T21:10:13Z,2022,21,10,68.8821,68.8821,72.78607,-145.21529,-999.0,-999.0,-999.0,no,yes,no,300534062724570,IT,ASL,ICEX_2022,North
2022-03-09T21:20:09Z,2022,21,20,68.889,68.889,72.78588,-145.21528,-999.0,-999.0,-999.0,no,yes,no,300534062724570,IT,ASL,ICEX_2022,North
2022-03-09T21:30:14Z,2022,21,30,68.896,68.896,72.78569,-145.21521,-999.0,-999.0,-999.0,no,yes,no,300534062724570,IT,ASL,ICEX_2022,North
2022-03-09T21:40:10Z,2022,21,40,68.9029,68.9029,72.78545,-145.21529,-999.0,-999.0,-999.0,no,yes,no,300534062724570,IT,ASL,ICEX_2022,North
2022-03-09T21:50:06Z,2022,21,50,68.9098,68.9098,72.78524,-145.21531,-999.0,-999.0,-999.0,no,yes,no,300534062724570,IT,ASL,ICEX_2022,North
2022-03-09T22:00:11Z,2022,22,0,68.9168,68.9168,72.78505,-145.21533,-999.0,-999.0,-999.0,no,yes,no,300534062724570,IT,ASL,ICEX_2022,North
2022-03-09T22:10:07Z,2022,22,10,68.9237,68.9237,72.78485,-145.21529,-999.0,-999.0,-999.0,no,yes,no,300534062724570,IT,ASL,ICEX_2022,North
2022-03-09T22:20:12Z,2022,22,20,68.9307,68.9307,72.78465,-145.21534,-999.0,-999.0,-999.0,no,yes,no,300534062724570,IT,ASL,ICEX_2022,North
2022-03-09T22:30:08Z,2022,22,30,68.9376,68.9376,72.78447,-145.2154,-999.0,-999.0,-999.0,no,yes,no,300534062724570,IT,ASL,ICEX_2022,North
2022-03-09T22:40:13Z,2022,22,40,68.9446,68.9446,72.78427,-145.21554,-999.0,-999.0,-999.0,no,yes,no,300534062724570,IT,ASL,ICEX_2022,North
2022-03-09T22:50:09Z,2022,22,50,68.9515,68.9515,72.78409,-145.21564,-999.0,-999.0,-999.0,no,yes,no,300534062724570,IT,ASL,ICEX_2022,North
2022-03-09T23:00:05Z,2022,23,0,68.9584,68.9584,72.7839,-145.21566,-999.0,-999.0,-999.0,no,yes,no,300534062724570,IT,ASL,ICEX_2022,North
2022-03-09T23:10:10Z,2022,23,10,68.9654,68.9654,72.78376,-145.21568,-999.0,-999.0,-999.0,no,yes,no,300534062724570,IT,ASL,ICEX_2022,North
2022-03-09T23:20:06Z,2022,23,20,68.9723,68.9723,72.78365,-145.21566,-999.0,-999.0,-999.0,no,yes,no,300534062724570,IT,ASL,ICEX_2022,North
2022-03-09T23:30:11Z,2022,23,30,68.9793,68.9793,72.78356,-145.2157,-999.0,-999.0,-999.0,no,yes,no,300534062724570,IT,ASL,ICEX_2022,North
2022-03-09T23:40:07Z,2022,23,40,68.9862,68.9862,72.78349,-145.2157,-999.0,-999.0,-999.0,no,yes,no,300534062724570,IT,ASL,ICEX_2022,North
2022-03-09T23:50:12Z,2022,23,50,68.9932,68.9932,72.78342,-145.21577,-999.0,-999.0,-999.0,no,yes,no,300534062724570,IT,ASL,ICEX_2022,North
2022-03-10T00:00:08Z,2022,0,0,69.0001,69.0001,72.78326,-145.21601,-999.0,-999.0,-999.0,no,yes,no,300534062724570,IT,ASL,ICEX_2022,North
2022-03-10T00:10:13Z,2022,0,10,69.0071,69.0071,72.78301,-145.21638,-999.0,-999.0,-999.0,no,yes,no,300534062724570,IT,ASL,ICEX_2022,North